Weather History for Asheville, NC

Change the Weather History Date:

Wednesday, March 5, 2014

  Actual Average Record
Temperature  
Mean Temperature 43 °F 44 °F  
Max Temperature 58 °F 55 °F 78 °F (1955)
Min Temperature 28 °F 33 °F 5 °F (1960)
Degree Days  
Heating Degree Days 22 21  
Month to date heating degree days 111 106  
Since 1 July heating degree days 3430 3323  
Cooling Degree Days 0 0  
Month to date cooling degree days 0 0  
Year to date cooling degree days 0 0  
Moisture  
Dew Point 24 °F    
Average Humidity 48    
Maximum Humidity 72    
Minimum Humidity 24    
Precipitation  
Precipitation 0.00 in 0.12 in 2.34 in (1963)
Month to date precipitation 0.18 0.60  
Year to date precipitation 5.53 8.03  
Snow  
Snow 0.00 in 0.00 in 1.60 in (1912)
Month to date snowfall T 0.3  
Since 1 July snowfall 9.4 7.6  
Snow Depth 0.00 in    
Sea Level Pressure  
Sea Level Pressure 30.13 in    
Wind  
Wind Speed 4 mph (WNW)    
Max Wind Speed 15 mph    
Max Gust Speed 18 mph    
Visibility 10 miles    
Events      
T = Trace of Precipitation, MM = Missing Value Source: NWS Daily Summary

Daily Weather History Graph

Daily Weather History Graph

Search for Another Location

Airport:

Trip Planner

Search our weather history database for the weather conditions in past years. The results will help you decide how hot, cold, wet, or windy it might be!

Date:

Astronomy

Mar. 05, 2014 Rise Set
Actual Time 6:54 AM EST 6:29 PM EST
Civil Twilight 6:29 AM EST 6:54 PM EST
Nautical Twilight 5:59 AM EST 7:24 PM EST
Astronomical Twilight 5:30 AM EST 7:53 PM EST
Moon 9:30 AM EST (3/5) 11:24 PM EST (3/5)
Length of Visible Light 12h 25m
Length of Day
11h 34m
Waxing Crescent, 23% of the Moon is Illuminated
Mar 5
Waxing Crescent
Mar 8
First Quarter
Mar 16
Full
Mar 23
Last Quarter
Mar 30
New

Hourly Weather History & Observations

Time (EST) Temp. Windchill Dew Point Humidity Pressure Visibility Wind Dir Wind Speed Gust Speed Precip Events Conditions
12:54 AM 32.0 °F - 16.0 °F 52% 30.14 in 10.0 mi Calm Calm - N/A   Clear
1:54 AM 30.9 °F - 19.0 °F 61% 30.14 in 10.0 mi Calm Calm - N/A   Clear
2:54 AM 30.9 °F - 17.1 °F 57% 30.14 in 10.0 mi Calm Calm - N/A   Clear
3:54 AM 30.9 °F 26.2 °F 19.9 °F 64% 30.13 in 10.0 mi NW 4.6 mph - N/A   Clear
4:54 AM 30.9 °F 26.2 °F 19.0 °F 61% 30.14 in 10.0 mi North 4.6 mph - N/A   Clear
5:54 AM 30.0 °F - 19.9 °F 66% 30.14 in 10.0 mi Calm Calm - N/A   Clear
6:54 AM 28.9 °F - 19.9 °F 69% 30.15 in 10.0 mi Calm Calm - N/A   Clear
7:54 AM 30.0 °F 25.2 °F 23.0 °F 75% 30.16 in 10.0 mi NNW 4.6 mph - N/A   Clear
8:54 AM 33.1 °F 30.0 °F 23.0 °F 66% 30.17 in 10.0 mi North 3.5 mph - N/A   Clear
9:54 AM 37.9 °F 33.5 °F 26.1 °F 62% 30.17 in 10.0 mi North 5.8 mph - N/A   Clear
10:54 AM 44.1 °F 40.8 °F 30.0 °F 58% 30.15 in 10.0 mi North 5.8 mph - N/A   Clear
11:54 AM 50.0 °F - 28.0 °F 43% 30.12 in 10.0 mi Variable 3.5 mph - N/A   Clear
12:54 PM 55.0 °F - 25.0 °F 31% 30.09 in 10.0 mi NNW 5.8 mph - N/A   Clear
1:54 PM 54.0 °F - 18.0 °F 24% 30.06 in 10.0 mi NW 6.9 mph - N/A   Clear
2:54 PM 57.0 °F - 21.0 °F 25% 30.04 in 10.0 mi Calm Calm - N/A   Clear
3:54 PM 55.9 °F - 28.0 °F 34% 30.05 in 10.0 mi South 6.9 mph - N/A   Clear
4:54 PM 55.9 °F - 30.0 °F 37% 30.03 in 10.0 mi South 8.1 mph - N/A   Clear
5:54 PM 53.1 °F - 28.0 °F 38% 30.09 in 10.0 mi SSE 9.2 mph - N/A   Clear
6:54 PM 48.0 °F - 27.0 °F 44% 30.13 in 10.0 mi South 5.8 mph - N/A   Clear
7:54 PM 45.0 °F 42.6 °F 28.0 °F 52% 30.15 in 10.0 mi South 4.6 mph - N/A   Clear
8:54 PM 42.1 °F 38.4 °F 28.0 °F 58% 30.18 in 10.0 mi South 5.8 mph - N/A   Clear
9:54 PM 41.0 °F - 28.0 °F 60% 30.19 in 10.0 mi Calm Calm - N/A   Clear
10:54 PM 39.0 °F - 28.0 °F 65% 30.19 in 10.0 mi Calm Calm - N/A   Clear
11:54 PM 37.9 °F 35.5 °F 28.0 °F 68% 30.17 in 10.0 mi South 3.5 mph - N/A   Clear